Regional Weather Roundup
Issued by NWS Mobile, AL

Home | Current Version | Previous Version | Text Only | Print | Product List | Glossary On
Versions: 1 2 3 4 5 6 7 8 9 10 11 12 13 14 15 16 17 18 19 20 21 22 23 24 25 26 27 28 29 30 31 32 33 34 35 36 37 38 39 40 41 42 43 44 45 46 47 48 49 50
000
ASUS44 KMOB 300610
RWRMOB
REGIONAL WEATHER ROUNDUP
NATIONAL WEATHER SERVICE MOBILE AL
100 AM CDT SAT AUG 30 2014

NOTE: "FAIR" INDICATES FEW OR NO CLOUDS BELOW 12,000 FEET WITH NO
      SIGNIFICANT WEATHER AND/OR OBSTRUCTIONS TO VISIBILITY.

  * THESE STATIONS ARE PART OF THE UNIVERSITY OF SOUTH ALABAMA
    MESONET AND ARE NOT UNDER NWS OR FAA QUALITY CONTROL.

ALZ061>064-300700-
COASTAL ALABAMA

CITY           SKY/WX    TMP DP  RH WIND       PRES   REMARKS
MOBILE REG APT MOCLDY    76  75  97 S6        30.07R
6HR MIN TEMP:  75; 6HR MAX TEMP:  79; 6HR PCP:  0.01;

BROOKLEY FIELD FAIR      80  76  87 S6        30.07R
6HR MIN TEMP:  77; 6HR MAX TEMP:  82; 6HR PCP:  0.07;

USA CAMPUS*      N/A     75  73  94 CALM      30.06R
DOG RIVER*       N/A     79  77  94 S5        30.06R


CITY           SKY/WX    TMP DP  RH WIND       PRES   REMARKS
MOUNT VERNON*    N/A     75  73  94 CALM      30.06R
SARALAND*      NOT AVBL
BAY MINETTE*   NOT AVBL
LOXLEY*          N/A     73  72  94 S3        30.07R
ROBERTSDALE*     N/A    N/A N/A N/A S2        30.07R
FAIRHOPE*        N/A     75  73  94 S6        30.06R
ELBERTA*         N/A     77  64  65 CALM      30.06R
FOLEY*         NOT AVBL
GRAND BAY*       N/A     77  75  94 SE3       30.04R
DAUPHIN ISLND* NOT AVBL
BON SCOUR NWR* NOT AVBL
GULF SHORES    FAIR      79  74  86 SE7       30.06S

$$

ALZ051>060-300700-
INTERIOR SOUTHWEST AND SOUTH CENTRAL ALABAMA

CITY           SKY/WX    TMP DP  RH WIND       PRES   REMARKS
GREENVILLE     FAIR      74  72  93 CALM      30.07F
6HR MIN TEMP:  74; 6HR MAX TEMP:  87; 6HR PCP:  0.03;

EVERGREEN      FAIR      79  75  87 SE3       30.07S
6HR MIN TEMP:  79; 6HR MAX TEMP:  87;

CASTLEBERRY*   NOT AVBL
ATMORE*          N/A     75  75 100 CALM      30.08R
DIXIE*         NOT AVBL
ANDALUSIA/OPP  FAIR      79  74  84 CALM      30.07S
6HR MIN TEMP:  79; 6HR MAX TEMP:  88; 6HR PCP: TRACE;

ANDALUSIA*     NOT AVBL
FLORALA APT    FAIR      75  72  90 CALM      30.09R
6HR MIN TEMP:  75; 6HR MAX TEMP:  82;

FLORALA*         N/A     75  73  94 E2        30.05S

$$

FLZ001>006-300700-
WESTERN FLORIDA PANHANDLE

CITY           SKY/WX    TMP DP  RH WIND       PRES   REMARKS
PENSACOLA      FAIR      77  74  90 SW6       30.06R
6HR MIN TEMP:  76; 6HR MAX TEMP:  79; 6HR PCP: TRACE;

NAS PENSACOLA  FAIR      80  76  87 S12       30.06R
6HR MIN TEMP:  77; 6HR MAX TEMP:  81; 6HR PCP: TRACE;

MILTON         FAIR      76  71  85 W6        30.07R
6HR MIN TEMP:  76; 6HR MAX TEMP:  79;

WHTNG S FIELD    N/A    N/A N/A N/A MISG      30.07R


CITY           SKY/WX    TMP DP  RH WIND       PRES   REMARKS
WALNUT HILL*   NOT AVBL
JAY*           NOT AVBL
DUKE FIELD     FAIR      78  77  96 S6        30.07R
CRESTVIEW      FAIR      76  74  93 CALM      30.08R
6HR MIN TEMP:  75; 6HR MAX TEMP:  83;

VALPARAISO     MOCLDY    82  77  84 SW7       30.06S
6HR MIN TEMP:  82; 6HR MAX TEMP:  84;

DESTIN         FAIR      83  77  82 SW5       30.07R
6HR MIN TEMP:  83; 6HR MAX TEMP:  86;


$$

MSZ076-079-300700-
INTERIOR SOUTHEAST MISSISSIPPI

CITY           SKY/WX    TMP DP  RH WIND       PRES   REMARKS
LEAKESVILLE*   NOT AVBL
AGRICOLA*      NOT AVBL

$$

MARINE OBSERVATIONS

STATION/POSITION TIME  TEMP    WIND        PRES    WAVE
                       AIR SEA DIR/SP/G            HT/PER
                 (UTC) (F)     (DEG/KT/KT) (MB)    (FT/S)
PASCAGOULA       0600   83     170/ 14/ 16 1017.2S
PETIT BOIS ISLND 0600   82     160/ 13/ 16 1017.7R
GRAND BAY        0500   81     160/ 11     1018.0S
KATRINA CUT      0500   82     180/ 13     1018.0R
CEDAR POINT      0500   80     150/  9     1018.0R
E DAUPHIN ISLAND 0500   81     150/ 14/ 15 1017.5R
MIDDLE BAY LIGHT 0500   81     160/ 14     1018.0R
USCG MOBILE BAY  0600   81 86  160/  7/  9 1016.8R
STATE DOCKS      0600   80 85              1017.7R
MEAHER PARK      0500   78     130/  7     1017.6R
WEEKS BAY        0500   74                   N/A
FORT MORGAN      0600   82     180/ 15/ 18 1017.4R
12 S ORANGE BCH  0600   82 85  140/ 14/ 16 1017.9R   3/ 6
PENSACOLA BAY    0600   82 85  170/  8/ 12 1018.2R

$$

SELECTED LOCATIONS ACROSS THE REGION

CITY           SKY/WX    TMP DP  RH WIND       PRES   REMARKS
NEW ORLEANS    CLOUDY    78  73  84 SE7       30.00F
GULFPORT       MOCLDY    81  77  88 S7        30.03S
PASCAGOULA AP  FAIR      78  75  90 S5        30.05R
PASCAGOULA*      N/A     81  75  83 CALM      30.04R
HATTIESBURG    FAIR      76  73  91 S5        30.06R
LAUREL         FAIR      73  70  88 SW6       30.06S
MERIDIAN       FAIR      77  71  82 SW3       30.04R
JACKSON        FAIR      77  70  79 S8        30.04R
MONTGOMERY     FAIR      79  72  79 SE3       30.07R
TROY           FAIR      76  73  91 S3        30.08S
KINSTON*       NOT AVBL
GENEVA*          N/A     72  70  94 SE3       30.11R
ASHFORD*       NOT AVBL
DOTHAN         FAIR      74  72  93 SE3       30.13R
PANAMA CITY    FAIR      77  74  90 CALM      30.08R

$$




USA.gov is the U.S. government's official web portal to all federal, state and local government web resources and services.